Stations météo

réclame
Mon MeteoGroup
Benson, Grande-Bretagne (3658): Température de l'air & dewpoint: 26.11.2020 12:00:00 - 02.12.2020 12:00:00 (GMT)Benson, Grande-Bretagne (3658): Température de l'air -20cm & Température de l'air -100cm: 26.11.2020 12:00:00 - 02.12.2020 12:00:00 (GMT)Benson, Grande-Bretagne (3658): Vitesse du vent: 26.11.2020 12:00:00 - 02.12.2020 12:00:00 (GMT)Benson, Grande-Bretagne (3658): Direction du vent: 26.11.2020 12:00:00 - 02.12.2020 12:00:00 (GMT)Benson, Grande-Bretagne (3658): reduced air pressure: 26.11.2020 12:00:00 - 02.12.2020 12:00:00 (GMT)Benson, Grande-Bretagne (3658): visibility: 26.11.2020 12:00:00 - 02.12.2020 12:00:00 (GMT)Benson, Grande-Bretagne (3658): Quantités de précipitations: 26.11.2020 12:00:00 - 02.12.2020 12:00:00 (GMT)
Date & Time tt [°C] td [°C] tt -20cm [°C] tt -100cm [°C] ff [km/h] ff [knt] dd ppp [hPa] vv [km] rr [mm]
02.12.2020 12:00:00 5,5 3,9 - - 5 3 S 1017,8 10 0,0
02.12.2020 11:00:00 5,0 3,5 - - 8 4 S 1018,9 10 0,0
02.12.2020 10:00:00 4,6 3,4 - - 8 4 S 1019,4 10 0,0
02.12.2020 09:00:00 1,7 1,6 8,0 9,9 5 3 SSE 1020,2 10 0,0
02.12.2020 08:00:00 0,5 0,3 - - 4 2 ESE 1020,9 10 0,0
02.12.2020 07:00:00 0,6 0,4 - - 2 1 E 1021,4 15 0,0
02.12.2020 06:00:00 1,5 1,3 - - 0 0 N 1022,1 8 0,0
02.12.2020 05:00:00 1,4 1,3 - - 2 1 SE 1022,5 7 0,0
02.12.2020 04:00:00 0,9 0,8 - - 2 1 SE 1023,5 10 0,0
02.12.2020 03:00:00 0,5 0,3 - - 0 0 N 1024,5 11 0,0
02.12.2020 02:00:00 -0,6 -0,9 - - 2 1 S 1024,8 11 0,0
02.12.2020 01:00:00 -0,9 -1,2 - - 4 2 E 1025,4 9 0,0
02.12.2020 00:00:00 -1,0 -1,2 - - 4 2 E 1026,2 10 0,0
01.12.2020 23:00:00 -2,3 -2,8 - - 4 2 ESE 1026,6 10 0,0
01.12.2020 22:00:00 -1,9 -2,4 - - 4 2 ESE 1026,8 10 0,0
01.12.2020 21:00:00 0,4 0,1 - - 5 3 SSE 1026,9 10 0,0
01.12.2020 20:00:00 -0,4 -0,7 - - 4 2 S 1027,0 18 0,0
01.12.2020 19:00:00 -1,7 -2,5 - - 2 1 S 1027,0 10 0,0
01.12.2020 18:00:00 -0,3 -1,1 - - 4 2 ESE 1026,8 10 0,0
01.12.2020 17:00:00 1,2 -0,7 - - 2 1 WNW 1026,6 10 0,0
01.12.2020 16:00:00 5,1 1,9 - - 9 5 NW 1026,7 10 0,0
01.12.2020 15:00:00 6,6 2,5 - - 9 5 NNW 1026,6 10 0,0
01.12.2020 14:00:00 7,1 2,6 - - 15 8 NNW 1026,5 10 0,0
01.12.2020 13:00:00 7,1 2,6 - - 16 9 NNW 1026,9 10 0,0
01.12.2020 12:00:00 6,6 2,1 - - 18 10 N 1027,3 10 0,0
01.12.2020 11:00:00 5,4 2,0 - - 8 4 NW 1027,5 30 0,0
01.12.2020 10:00:00 3,4 2,2 - - 5 3 S 1027,6 10 0,0
01.12.2020 09:00:00 -0,2 -0,4 8,7 10,0 5 3 WSW 1027,5 10 0,0
01.12.2020 08:00:00 -2,0 -2,7 - - 2 1 S 1027,1 25 0,0
01.12.2020 07:00:00 -0,6 -0,9 - - 4 2 SW 1026,4 10 0,0
01.12.2020 06:00:00 -1,0 -1,9 - - 4 2 SE 1026,1 24 0,0
01.12.2020 05:00:00 0,5 -0,9 - - 4 2 W 1025,5 10 0,0
01.12.2020 04:00:00 3,0 0,6 - - 4 2 NW 1025,0 30 0,0
01.12.2020 03:00:00 3,5 1,3 - - 5 3 NNW 1024,9 10 0,0
01.12.2020 02:00:00 3,5 1,5 - - 5 3 NW 1024,5 10 0,0
01.12.2020 01:00:00 4,0 1,8 - - 9 5 NNW 1024,1 10 0,0
01.12.2020 00:00:00 5,1 2,3 - - 9 5 NNW 1023,7 30 0,0
30.11.2020 23:00:00 6,0 2,7 - - 13 7 NW 1023,3 30 0,0
30.11.2020 22:00:00 7,1 2,9 - - 21 11 NNW 1022,9 10 0,0
30.11.2020 21:00:00 9,0 4,4 - - 24 13 NW 1022,1 10 0,0
30.11.2020 20:00:00 9,8 7,7 - - 16 9 W 1020,9 10 0,0
30.11.2020 19:00:00 10,0 7,6 - - 16 9 W 1020,6 10 0,0
30.11.2020 18:00:00 10,2 7,7 - - 21 11 W 1020,9 10 0,0
30.11.2020 17:00:00 10,0 7,9 - - 15 8 W 1021,1 10 0,0
30.11.2020 16:00:00 10,0 8,0 - - 21 11 WSW 1021,1 10 0,0
30.11.2020 15:00:00 9,7 7,6 - - 21 11 WSW 1021,4 10 0,0
30.11.2020 14:00:00 9,5 7,5 - - 24 13 WSW 1022,2 10 0,0
30.11.2020 13:00:00 9,0 8,5 - - 13 7 WSW 1022,7 10 0,0
30.11.2020 12:00:00 6,9 6,9 - - 11 6 SSW 1024,0 6 0,0
30.11.2020 11:00:00 6,1 6,1 - - 9 5 S 1024,9 4,0 0,0
30.11.2020 10:00:00 5,0 5,0 - - 11 6 SW 1026,0 2,0 0,0
30.11.2020 09:00:00 4,8 4,8 9,0 10,0 13 7 SW 1026,5 0,5 0,0
30.11.2020 08:00:00 4,7 4,7 - - 9 5 S 1026,1 0,6 0,0
30.11.2020 07:00:00 4,3 4,3 - - 9 5 SSW 1026,5 0,3 0,0
30.11.2020 06:00:00 4,6 4,6 - - 8 4 WSW 1026,9 0,3 0,0
30.11.2020 05:00:00 4,8 4,8 - - 8 4 WSW 1027,0 0,2 0,2
30.11.2020 04:00:00 5,1 5,1 - - 5 3 W 1026,8 0,3 0,0
30.11.2020 03:00:00 5,1 5,1 - - 5 3 WSW 1027,3 2,7 0,0
30.11.2020 02:00:00 5,1 5,1 - - 4 2 SSW 1027,3 3,6 0,0
30.11.2020 01:00:00 5,3 5,3 - - 4 2 WSW 1027,4 0,5 0,0
30.11.2020 00:00:00 5,3 5,3 - - 9 5 NNW 1027,5 10 0,0
29.11.2020 23:00:00 5,3 5,3 - - 5 3 W 1027,9 4,0 0,0
29.11.2020 22:00:00 5,3 5,3 - - 4 2 SSW 1027,5 0,2 0,0
29.11.2020 21:00:00 5,3 5,3 - - 5 3 SW 1027,5 0,2 0,0
29.11.2020 20:00:00 5,4 5,3 - - 4 2 SSW 1027,7 0,3 0,0
29.11.2020 19:00:00 5,5 5,4 - - 5 3 WSW 1027,4 0,1 0,0
29.11.2020 18:00:00 5,7 5,6 - - 5 3 SSW 1027,3 1,5 0,0
29.11.2020 17:00:00 5,8 5,7 - - 2 1 SW 1027,0 1,7 0,0
29.11.2020 16:00:00 5,9 5,7 - - 2 1 NNW 1026,9 2,3 0,0
29.11.2020 15:00:00 6,0 5,8 - - 4 2 S 1026,5 3,4 0,0
29.11.2020 14:00:00 6,3 5,9 - - 4 2 NNE 1026,7 4,9 0,0
29.11.2020 13:00:00 6,6 6,0 - - 4 2 NW 1026,6 6 0,0
29.11.2020 12:00:00 6,7 6,4 - - 4 2 NE 1026,4 7 0,0
29.11.2020 11:00:00 6,4 6,2 - - 4 2 NE 1026,7 7 0,0
29.11.2020 10:00:00 6,0 5,9 - - 5 3 NE 1026,5 4,2 0,0
29.11.2020 09:00:00 6,0 5,8 8,9 10,2 5 3 NE 1026,1 2,5 0,0
29.11.2020 08:00:00 6,3 6,0 - - 5 3 NNE 1025,8 3,2 0,0
29.11.2020 07:00:00 6,5 6,0 - - 5 3 E 1025,1 5 0,0
29.11.2020 06:00:00 6,8 6,3 - - 9 5 ENE 1024,7 4,8 0,0
29.11.2020 05:00:00 7,2 6,5 - - 9 5 NE 1024,6 3,4 0,0
29.11.2020 04:00:00 7,3 6,6 - - 8 4 NNE 1024,5 3,4 0,0
29.11.2020 03:00:00 7,4 6,6 - - 9 5 NE 1024,4 4,6 0,0
29.11.2020 02:00:00 7,5 6,6 - - 8 4 NE 1024,0 4,9 0,0
29.11.2020 01:00:00 7,7 7,0 - - 8 4 NE 1023,7 3,8 0,0
29.11.2020 00:00:00 7,8 7,0 - - 5 3 NE 1023,6 5 0,0
28.11.2020 23:00:00 8,4 7,4 - - 9 5 E 1023,0 4,4 0,0
28.11.2020 22:00:00 8,3 7,4 - - 11 6 E 1022,7 4,9 0,0
28.11.2020 21:00:00 8,2 7,1 - - 13 7 E 1022,1 4,7 0,0
28.11.2020 20:00:00 9,1 8,3 - - 8 4 ENE 1021,5 4,3 0,0
28.11.2020 19:00:00 9,2 8,3 - - 8 4 NE 1021,0 4,4 0,0
28.11.2020 18:00:00 9,3 8,4 - - 8 4 NE 1020,6 4,5 0,0
28.11.2020 17:00:00 8,9 8,1 - - 9 5 E 1020,0 4,7 0,0
28.11.2020 16:00:00 8,9 8,1 - - 13 7 ENE 1019,5 5 0,0
28.11.2020 15:00:00 9,1 8,2 - - 8 4 ENE 1018,9 5 0,0
28.11.2020 14:00:00 9,2 8,3 - - 11 6 E 1018,4 4,5 0,0
28.11.2020 13:00:00 9,2 8,3 - - 8 4 E 1018,4 3,9 0,0
28.11.2020 12:00:00 9,0 8,2 - - 9 5 E 1018,0 4,2 0,0
28.11.2020 11:00:00 9,1 8,4 - - 13 7 E 1017,5 4,0 0,0
28.11.2020 10:00:00 8,7 8,1 - - 5 3 E 1017,3 3,8 0,0
28.11.2020 09:00:00 8,2 7,7 8,5 10,2 9 5 E 1016,8 3,4 0,0
28.11.2020 08:00:00 7,9 7,4 - - 11 6 ESE 1016,6 3,2 0,0
28.11.2020 07:00:00 7,8 7,4 - - 13 7 E 1015,8 3,2 0,0
28.11.2020 06:00:00 7,7 7,6 - - 11 6 E 1015,4 2,8 0,2
28.11.2020 05:00:00 6,3 6,2 - - 4 2 NW 1015,5 3,5 0,0
28.11.2020 04:00:00 5,7 5,6 - - 5 3 NW 1015,4 2,8 0,0
28.11.2020 03:00:00 5,7 5,6 - - 8 4 NNE 1015,5 3,7 0,0
28.11.2020 02:00:00 4,9 4,8 - - 5 3 NNW 1015,7 4,0 0,0
28.11.2020 01:00:00 4,4 4,3 - - 9 5 NNW 1015,8 4,2 0,0
28.11.2020 00:00:00 4,0 4,0 - - 4 2 NNW 1015,9 3,6 0,0
27.11.2020 23:00:00 3,5 3,4 - - 5 3 WNW 1016,2 3,3 0,0
27.11.2020 22:00:00 3,0 2,9 - - 4 2 N 1016,3 4,5 0,0
27.11.2020 21:00:00 3,1 2,9 - - 9 5 N 1016,5 3,5 0,0
27.11.2020 20:00:00 3,7 3,6 - - 8 4 N 1016,9 4,0 0,0
27.11.2020 19:00:00 4,0 3,9 - - 9 5 NNE 1017,2 4,5 0,0
27.11.2020 18:00:00 4,1 4,1 - - 11 6 NNE 1017,3 6 0,0
27.11.2020 17:00:00 3,9 3,9 - - 11 6 NNE 1017,5 5 0,0
27.11.2020 16:00:00 3,8 3,8 - - 9 5 NNE 1017,6 4,4 0,0
27.11.2020 15:00:00 3,4 3,4 - - 13 7 NNE 1017,8 4,6 0,0
27.11.2020 14:00:00 2,7 2,7 - - 11 6 NNE 1018,3 1,2 0,0
27.11.2020 13:00:00 2,0 2,0 - - 9 5 NNE 1018,9 0,4 0,0
27.11.2020 12:00:00 0,8 0,8 - - 8 4 NNE 1019,6 0,2 0,0
27.11.2020 11:00:00 -0,1 -0,1 - - 0 0 N 1020,5 0,2 0,2
27.11.2020 10:00:00 -0,5 -0,5 - - 4 2 N 1020,8 0,2 0,0
27.11.2020 09:00:00 -1,1 -1,1 8,7 10,5 5 3 N 1021,0 0,2 0,0
27.11.2020 08:00:00 -1,3 -1,3 - - 8 4 N 1021,0 0,2 0,0
27.11.2020 07:00:00 -0,8 -0,8 - - 0 0 N 1021,2 0,1 0,0
27.11.2020 06:00:00 -0,8 -0,8 - - 0 0 N 1021,3 0,1 0,0
27.11.2020 05:00:00 -0,7 -0,7 - - 5 3 N 1021,1 0,1 0,0
27.11.2020 04:00:00 -0,3 -0,3 - - 4 2 N 1021,5 0,1 0,0
27.11.2020 03:00:00 -0,3 -0,3 - - 4 2 N 1021,6 0,1 0,0
27.11.2020 02:00:00 -0,3 -0,3 - - 4 2 NNW 1021,9 0,1 0,0
27.11.2020 01:00:00 0,2 0,2 - - 4 2 NW 1021,8 0,1 0,2
27.11.2020 00:00:00 0,4 0,4 - - 2 1 NNW 1021,9 - 0,0
26.11.2020 23:00:00 0,1 0,1 - - 0 0 N 1022,0 0,1 0,0
26.11.2020 22:00:00 -0,3 -0,3 - - 0 0 N 1022,1 0,1 0,0
26.11.2020 21:00:00 -0,7 -0,7 - - 2 1 S 1022,2 0,1 0,0
26.11.2020 20:00:00 -1,0 -1,0 - - 0 0 N 1022,1 0,1 0,0
26.11.2020 19:00:00 -1,0 -1,0 - - 2 1 S 1022,2 - 0,0
26.11.2020 18:00:00 -0,3 -0,3 - - 2 1 ENE 1021,9 0,1 0,0
26.11.2020 17:00:00 1,6 1,6 - - 4 2 NNE 1021,4 10 0,0
26.11.2020 16:00:00 2,6 2,6 - - 2 1 NE 1021,3 0,5 0,0
26.11.2020 15:00:00 4,8 4,8 - - 4 2 NNW 1021,2 5 0,0
26.11.2020 14:00:00 3,3 3,3 - - 4 2 NNW 1021,2 0,2 0,0
26.11.2020 13:00:00 2,7 2,7 - - 2 1 WNW 1021,7 0,5 0,0
26.11.2020 12:00:00 0,9 0,9 - - 2 1 NE 1022,1 0,3 0,0

tt = Température de l'air
td = dewpoint
tt -20cm = Température de l'air -20cm
tt -100cm = Température de l'air -100cm
ff = Vitesse du vent
dd = Direction du vent
ppp = reduced air pressure
vv = visibility
rr = Quantités de précipitations

stations d'obs. à proximité